Location: Musselshell
(46.5176°N, 108.0911°W)
Time: 12:29:15
(UTC+00:00)

Tiangong - Visible Passes

Search period start: 22 January 2022 00:00
Search period end: 01 February 2022 00:00
Orbit: 383 x 386 km, 41.5° (Epoch: 21 January)

Date Brightness Start Highest point End Pass type
(mag) Time Alt. Az. Time Alt. Az. Time Alt. Az.
28 Jan 3.4 02:04:30 10° SSW 02:05:48 15° S 02:05:48 15° S visible
29 Jan 3.6 01:05:53 10° S 01:07:01 11° SSE 01:08:09 10° SE visible
29 Jan 3.9 02:40:29 10° SW 02:41:10 14° SW 02:41:10 14° SW visible
30 Jan 2.8 01:41:00 10° SW 01:43:33 22° SSE 01:44:15 20° SE visible
31 Jan 2.7 02:17:19 10° WSW 02:19:30 28° SSW 02:19:30 28° SSW visible
